Location: Innerarity Island Observatory
(30.3139°N, 87.4867°W)
Time: 01:40:49
(UTC-05:00)

Amateur Radio Satellites - All Passes

Search period start: 05 May 2016 01:10
Search period end: 06 May 2016 01:10
Location: Innerarity Island Observatory, 30.3139°N, 87.4867°W

Satellite Date Start Highest point End Downlink Frequencies (MHz)
Time Altitude Azimuth
SRMSAT 05 May 01:12:43 01:13:35 10° 200° (SSW) 01:14:25 437.500
BUGSAT 1 05 May 01:18:41 01:22:31 36° 286° (WNW) 01:26:17 437.445
TISAT 1 05 May 01:30:03 01:34:14 59° 260° (W) 01:38:26 437.305
DANDE 05 May 01:32:57 01:38:27 22° 75° (ENE) 01:44:26 436.750
NANOSAT C BR1 05 May 01:33:03 01:34:25 11° 292° (WNW) 01:35:48 145.865
AIST 1 05 May 01:36:15 01:37:00 10° 286° (WNW) 01:37:45
BEESAT 05 May 01:36:42 01:40:27 24° 70° (ENE) 01:44:13 436.000
Oscar 19 05 May 01:48:49 01:53:47 44° 100° (E) 01:58:40 437.125/150
O/OREOS (USA 219) 05 May 01:50:56 01:54:01 18° 260° (W) 01:57:04 437.305
PCSat 05 May 02:01:19 02:05:49 27° 253° (WSW) 02:10:19 145.827
Gurwin Techsat 1B 05 May 02:03:00 02:07:07 23° 96° (E) 02:11:13 435.225
CUSAT 1 05 May 02:10:14 02:18:01 82° 83° (E) 02:26:04 437.405
GONETS M04 05 May 02:21:12 02:27:08 20° 288° (WNW) 02:33:07
JAS-2 05 May 02:22:57 02:30:39 60° 287° (WNW) 02:38:06 435.910
ITUPSAT 1 05 May 02:32:10 02:36:55 81° 257° (WSW) 02:41:41 437.325
SWISSCUBE 05 May 02:40:23 02:45:03 56° 259° (W) 02:49:43 437.505
Cosmos 2499 05 May 02:42:01 02:46:56 20° 286° (WNW) 02:51:52 435.465 / 435.565
BEESAT 3 05 May 02:43:41 02:46:51 23° 57° (ENE) 02:50:00 437.485
BEESAT 2 05 May 02:55:59 02:58:46 18° 55° (NE) 03:01:33 435.950
KKS-1 05 May 03:02:39 03:06:08 23° 71° (ENE) 03:09:38 437.445
ITAMSAT 1 05 May 03:12:35 03:17:33 45° 100° (E) 03:22:29 435.822/435.867
STARS 05 May 03:13:49 03:16:16 15° 68° (ENE) 03:18:42 437.465
BEESAT 05 May 03:14:07 03:18:04 26° 263° (W) 03:22:02 436.000
DANDE 05 May 03:14:09 03:21:24 65° 265° (W) 03:29:41 436.750
MOZHAYETS 4 05 May 03:23:19 03:26:57 24° 71° (ENE) 03:30:35
Oscar 19 05 May 03:29:22 03:32:41 17° 293° (WNW) 03:35:58 437.125/150
Gurwin Techsat 1B 05 May 03:42:17 03:47:01 33° 289° (WNW) 03:51:44 435.225
CUSAT 1 05 May 03:54:51 03:59:22 17° 275° (W) 04:03:57 437.405
AO-7 05 May 04:04:27 04:12:25 48° 102° (ESE) 04:20:21 29.400- 29.500
BEESAT 3 05 May 04:21:27 04:24:23 20° 250° (WSW) 04:27:18 437.485
HORYU 2 05 May 04:27:32 04:29:40 13° 95° (E) 04:31:48 437.375
BEESAT 2 05 May 04:33:13 04:36:35 27° 249° (WSW) 04:39:56 435.950
RS-15 05 May 04:34:55 04:42:55 19° 37° (NE) 04:50:52 29.354- 29.394
KKS-1 05 May 04:38:54 04:42:32 24° 263° (W) 04:46:11 437.445
AIST 2 05 May 04:47:47 04:50:54 20° 56° (NE) 04:53:59 435.215
STARS 05 May 04:48:08 04:52:14 38° 261° (W) 04:56:23 437.465
ITAMSAT 1 05 May 04:53:22 04:56:35 17° 293° (WNW) 04:59:49 435.822/435.867
YUBILEINY 05 May 04:54:56 05:01:30 23° 73° (ENE) 05:08:02 435.215
MOZHAYETS 4 05 May 05:00:19 05:03:59 24° 264° (W) 05:07:38
CUBESAT XI-V 05 May 05:14:28 05:18:45 41° 74° (ENE) 05:23:05 437.345
Cosmos 2491 05 May 05:32:23 05:39:17 26° 84° (E) 05:46:10 435.465 / 435.565
NOAA 15 05 May 05:35:24 05:37:51 13° 94° (E) 05:40:17 137.62
NOAA 18 05 May 05:36:30 05:38:02 11° 93° (E) 05:39:33 137.9125
BRITE-PL 05 May 05:44:10 05:45:45 11° 90° (E) 05:47:19 437.365/2234.400
Cubesat XI-IV 05 May 05:48:02 05:48:52 10° 93° (E) 05:49:43 437.490
AO-7 05 May 05:57:44 06:04:48 32° 296° (WNW) 06:11:53 29.400- 29.500
SO-50 05 May 05:59:56 06:04:41 55° 114° (ESE) 06:09:30 436.795
STRAND 1 05 May 06:00:56 06:01:08 10° 64° (ENE) 06:01:19 437.568
HORYU 2 05 May 06:02:14 06:06:19 38° 287° (WNW) 06:10:24 437.375
ISS 05 May 06:06:07 06:09:17 48° 317° (NW) 06:12:27 145.825
LilacSat-2 05 May 06:17:26 06:20:00 17° 96° (E) 06:22:32 437.200
AIST 2 05 May 06:25:52 06:29:18 26° 249° (WSW) 06:32:44 435.215
CUTE-I 05 May 06:38:58 06:43:58 41° 100° (E) 06:48:57 437.470
GOMX 1 05 May 06:40:42 06:44:33 20° 93° (E) 06:48:14 467.674
Cosmos 2504 05 May 06:45:35 06:52:24 32° 78° (ENE) 06:59:34 435.465 / 435.565
RS-15 05 May 06:45:42 06:58:02 70° 61° (ENE) 07:10:12 29.354- 29.394
YUBILEINY 05 May 06:50:11 06:58:40 60° 269° (W) 07:07:11 435.215
CUBESAT XI-V 05 May 06:54:00 06:56:16 13° 266° (W) 06:58:32 437.345
NOAA 15 05 May 07:12:40 07:17:52 56° 286° (WNW) 07:23:02 137.62
NOAA 18 05 May 07:13:36 07:19:01 67° 286° (WNW) 07:24:25 137.9125
BRITE-PL 05 May 07:18:59 07:24:39 72° 284° (WNW) 07:30:04 437.365/2234.400
Cubesat XI-IV 05 May 07:23:59 07:29:16 68° 285° (WNW) 07:34:33 437.490
Cosmos 2491 05 May 07:26:58 07:35:30 53° 280° (W) 07:44:06 435.465 / 435.565
PHONESAT 2.4 05 May 07:33:52 07:36:44 33° 145° (SE) 07:39:36 2401.200-2431.200
STRAND 1 05 May 07:34:33 07:39:38 72° 258° (WSW) 07:44:43 437.568
HO-68 05 May 07:35:46 07:39:38 15° 94° (E) 07:43:29 435.675
SO-50 05 May 07:42:40 07:45:29 15° 309° (NW) 07:48:20 436.795
LilacSat-2 05 May 07:51:18 07:54:11 21° 288° (WNW) 07:57:04 437.200
DOVE 4 05 May 08:00:14 08:05:12 69° 101° (E) 08:09:51 437.250
CUTE 1.7 + AOD 2 05 May 08:09:26 08:12:36 20° 96° (E) 08:15:46 437.475
M-CUBED/EXP-1 PRIME 05 May 08:15:01 08:18:40 55° 289° (WNW) 08:22:03 437.505
GOMX 1 05 May 08:17:49 08:22:40 36° 288° (WNW) 08:27:16 467.674
CUTE-I 05 May 08:19:59 08:23:38 19° 292° (WNW) 08:27:18 437.470
CINEMA 3 05 May 08:24:29 08:28:31 33° 97° (E) 08:32:23 145.822/145.860
COMPASS 1 05 May 08:30:27 08:33:19 18° 96° (E) 08:36:10 437.405
AUBIESAT-1 05 May 08:31:24 08:34:53 40° 290° (WNW) 08:38:08 437.475
SEEDS 05 May 08:31:27 08:35:02 27° 97° (E) 08:38:36 437.485
Cosmos 2504 05 May 08:38:29 08:45:40 41° 270° (W) 08:53:21 435.465 / 435.565
PRISM 05 May 08:40:16 08:44:17 65° 259° (W) 08:48:21 437.425
CUBEBUG 2 05 May 08:53:59 08:57:05 20° 95° (E) 09:00:07 437.445
AAUSAT CUBESAT 2 05 May 08:57:51 09:01:33 31° 98° (E) 09:05:15 437.432
RS-15 05 May 08:59:52 09:09:27 28° 257° (WSW) 09:18:58 29.354- 29.394
ZACube-1 05 May 09:06:51 09:08:07 11° 93° (E) 09:09:22 437.345
PHONESAT 2.4 05 May 09:10:45 09:13:35 30° 338° (NNW) 09:16:25 2401.200-2431.200
CANX-2 05 May 09:12:03 09:16:09 50° 284° (WNW) 09:20:15 2200.000
HO-68 05 May 09:20:39 09:27:47 73° 287° (WNW) 09:34:54 435.675
Oscar 11 05 May 09:41:07 09:45:10 40° 99° (E) 09:49:12 145.826/435.025
CUTE 1.7 + AOD 2 05 May 09:44:58 09:48:19 23° 288° (WNW) 09:51:40 437.475
DELFI C3 05 May 09:49:23 09:52:28 21° 96° (E) 09:55:32 145.870
FUNcube-1 05 May 09:56:42 10:00:44 49° 99° (E) 10:04:43 145.935
UNISAT 6 05 May 09:56:50 10:00:55 31° 73° (ENE) 10:04:57 437.425
CINEMA 3 05 May 10:02:35 10:05:18 16° 292° (WNW) 10:07:57 145.822/145.860
COMPASS 1 05 May 10:05:20 10:08:48 26° 287° (WNW) 10:12:16 437.405
SEEDS 05 May 10:07:41 10:10:29 18° 289° (WNW) 10:13:18 437.485
TIGRISAT 05 May 10:12:58 10:17:25 46° 75° (ENE) 10:21:48 435.000
UWE-3 05 May 10:16:12 10:20:15 51° 285° (WNW) 10:24:15 435.000/436.395/437.385
CUBEBUG 2 05 May 10:30:15 10:33:37 23° 289° (WNW) 10:36:54 437.445
AAUSAT CUBESAT 2 05 May 10:34:21 10:36:44 15° 290° (WNW) 10:39:08 437.432
ANTELSAT 05 May 10:38:18 10:42:58 83° 255° (WSW) 10:47:35 437.575/2403.000
GONETS M04 05 May 10:39:40 10:46:36 26° 74° (ENE) 10:53:27
ZACube-1 05 May 10:40:40 10:44:32 39° 286° (WNW) 10:48:22 437.345
NANOSAT C BR1 05 May 10:42:49 10:45:27 16° 70° (ENE) 10:48:05 145.865
Cosmos 2499 05 May 10:46:26 10:49:32 12° 71° (ENE) 10:52:41 435.465 / 435.565
PHONESAT 2.4 05 May 10:49:22 10:51:02 13° 354° (N) 10:52:42 2401.200-2431.200
Oscar 11 05 May 11:18:57 11:20:53 13° 292° (WNW) 11:22:50 145.826/435.025
HUMSAT D 05 May 11:19:16 11:23:17 61° 283° (WNW) 11:27:18 437.325/437.525
AO-85 05 May 11:21:20 11:26:28 46° 113° (ESE) 11:31:41 145.980
DELFI C3 05 May 11:24:14 11:27:10 20° 288° (WNW) 11:30:07 145.870
DUCHIFAT 1 05 May 11:32:03 11:36:15 63° 76° (ENE) 11:40:29 145.980
UNISAT 6 05 May 11:34:20 11:37:34 19° 264° (W) 11:40:49 437.425
QB50P2 05 May 11:36:23 11:40:39 87° 79° (E) 11:44:58 145.880/145.840
POLYITAN 1 05 May 11:38:34 11:42:52 88° 77° (ENE) 11:47:10 437.675
POPSAT HIP 1 05 May 11:40:23 11:44:40 90° 83° (E) 11:48:58 437.405
AISAT 05 May 11:40:50 11:44:29 24° 97° (E) 11:48:05 437.250
QB50P1 05 May 11:43:20 11:47:37 81° 260° (W) 11:51:55 145.935-145.965
AIST 1 05 May 11:45:07 11:49:31 75° 266° (W) 11:53:53
TIGRISAT 05 May 11:52:12 11:54:12 13° 266° (W) 11:56:12 435.000
BUGSAT 1 05 May 12:01:55 12:06:06 67° 76° (ENE) 12:10:20 437.445
50 SAT 05 May 12:03:23 12:06:58 53° 100° (E) 12:10:34 437.505
CUBEBUG 1 05 May 12:09:00 12:13:20 51° 100° (E) 12:17:37 437.445
ESTCUBE 1 05 May 12:10:19 12:14:52 81° 101° (E) 12:19:24 437.505/2401.250
NANOSAT C BR1 05 May 12:17:05 12:20:53 31° 262° (W) 12:24:42 145.865
PHONESAT 2.4 05 May 12:26:38 12:28:42 16° 12° (NNE) 12:30:46 2401.200-2431.200
JAS-2 05 May 12:29:11 12:34:26 34° 68° (ENE) 12:40:18 435.910
DX 1 05 May 12:30:49 12:35:13 85° 105° (ESE) 12:39:35 434.975-435.025
UKube-1 05 May 12:31:56 12:36:16 69° 102° (ESE) 12:40:34 .
GONETS M04 05 May 12:35:17 12:43:41 54° 270° (W) 12:52:02
Cosmos 2499 05 May 12:35:20 12:43:22 87° 85° (E) 12:51:59 435.465 / 435.565
ISS 05 May 12:39:37 12:41:01 12° 34° (NE) 12:42:25 145.825
VELOX 1 05 May 12:44:01 12:48:24 57° 285° (WNW) 12:52:45 145.980
SPROUT 05 May 12:56:26 13:00:42 68° 101° (E) 13:04:56 437.525
Oscar 19 05 May 13:00:04 13:04:45 36° 72° (ENE) 13:09:27 437.125/150
AO-85 05 May 13:03:05 13:07:10 21° 307° (NW) 13:11:16 145.980
AISAT 05 May 13:17:20 13:20:47 22° 289° (WNW) 13:24:13 437.250
Gurwin Techsat 1B 05 May 13:18:51 13:22:45 21° 69° (ENE) 13:26:40 435.225
TISAT 1 05 May 13:20:00 13:23:46 31° 98° (E) 13:27:28 437.305
CUBEBUG 1 05 May 13:48:00 13:49:06 11° 293° (WNW) 13:50:11 437.445
PHONESAT 2.4 05 May 14:02:51 14:05:58 57° 27° (NNE) 14:09:04 2401.200-2431.200
JAS-2 05 May 14:14:28 14:19:27 29° 266° (W) 14:24:58 435.910
ISS 05 May 14:14:30 14:17:42 54° 228° (SW) 14:20:53 145.825
O/OREOS (USA 219) 05 May 14:16:40 14:21:16 81° 288° (WNW) 14:25:52 437.305
ITAMSAT 1 05 May 14:25:01 14:29:46 38° 72° (ENE) 14:34:32 435.822/435.867
Cosmos 2499 05 May 14:32:06 14:35:32 13° 278° (W) 14:39:04 435.465 / 435.565
ITUPSAT 1 05 May 14:38:32 14:43:03 41° 100° (E) 14:47:33 437.325
SO-50 05 May 14:39:21 14:41:02 12° 49° (NE) 14:42:41 436.795
Oscar 19 05 May 14:40:19 14:44:04 20° 264° (W) 14:47:51 437.125/150
SWISSCUBE 05 May 14:46:10 14:50:53 59° 101° (E) 14:55:34 437.505
JUGNU 05 May 14:49:56 14:52:18 12° 162° (SSE) 14:54:41 437.505
PCSat 05 May 14:52:57 14:58:21 89° 114° (ESE) 15:03:48 145.827
TISAT 1 05 May 14:56:37 14:59:06 15° 291° (WNW) 15:01:34 437.305
AO-7 05 May 14:57:24 15:04:53 39° 65° (ENE) 15:12:22 29.400- 29.500
Gurwin Techsat 1B 05 May 14:57:32 15:02:23 37° 261° (W) 15:07:17 435.225
CUSAT 1 05 May 15:09:29 15:12:45 62° 281° (W) 15:17:01 437.405
BEESAT 05 May 15:19:00 15:23:43 65° 285° (WNW) 15:28:26 436.000
PHONESAT 2.4 05 May 15:40:34 15:42:35 16° 219° (SW) 15:44:35 2401.200-2431.200
ITAMSAT 1 05 May 16:05:43 16:09:17 19° 264° (W) 16:12:51 435.822/435.867
SO-50 05 May 16:17:21 16:21:57 65° 245° (WSW) 16:26:23 436.795
ITUPSAT 1 05 May 16:17:40 16:20:29 16° 292° (WNW) 16:23:18 437.325
DANDE 05 May 16:21:37 16:23:31 16° 288° (WNW) 16:25:39 436.750
SWISSCUBE 05 May 16:26:47 16:28:07 11° 294° (WNW) 16:29:26 437.505
BEESAT 3 05 May 16:30:01 16:32:20 15° 109° (ESE) 16:34:39 437.485
KKS-1 05 May 16:34:33 16:39:01 81° 283° (WNW) 16:43:27 437.445
JUGNU 05 May 16:36:09 16:40:44 24° 170° (S) 16:45:20 437.505
PCSat 05 May 16:41:22 16:42:25 11° 310° (NW) 16:43:29 145.827
STARS 05 May 16:42:55 16:47:15 60° 101° (E) 16:51:33 437.465
BEESAT 2 05 May 16:44:06 16:45:40 12° 108° (ESE) 16:47:14 435.950
AO-7 05 May 16:50:01 16:57:29 38° 260° (W) 17:05:02 29.400- 29.500
NOAA 15 05 May 16:50:40 16:52:52 13° 65° (ENE) 16:55:04 137.62
HORYU 2 05 May 16:53:54 16:58:22 89° 252° (WSW) 17:02:51 437.375
NOAA 18 05 May 16:56:47 16:59:30 14° 65° (ENE) 17:02:13 137.9125
MOZHAYETS 4 05 May 16:59:56 17:04:28 65° 284° (WNW) 17:09:00
Cubesat XI-IV 05 May 17:04:49 17:06:04 11° 64° (ENE) 17:07:20 437.490
CUBESAT XI-V 05 May 17:17:42 17:20:44 17° 95° (E) 17:23:46 437.345
SRMSAT 05 May 17:42:09 17:46:00 18° 164° (SSE) 17:49:51 437.500
Cosmos 2491 05 May 17:44:19 17:53:00 61° 82° (E) 18:01:36 435.465 / 435.565
GOMX 1 05 May 17:44:23 17:46:22 12° 65° (ENE) 17:48:24 467.674
YUBILEINY 05 May 17:48:19 17:55:46 33° 86° (E) 18:03:10 435.215
CUTE-I 05 May 17:55:12 18:00:06 39° 72° (ENE) 18:05:00 437.470
BEESAT 3 05 May 18:06:17 18:09:45 29° 302° (WNW) 18:13:14 437.485
BEESAT 2 05 May 18:19:26 18:23:07 37° 300° (WNW) 18:26:51 435.950
BRITE-PL 05 May 18:23:31 18:28:14 71° 76° (ENE) 18:33:24 437.365/2234.400
JUGNU 05 May 18:24:13 18:29:15 30° 180° (S) 18:34:19 437.505
LilacSat-2 05 May 18:26:28 18:30:20 77° 78° (ENE) 18:34:12 437.200
NOAA 15 05 May 18:26:50 18:32:02 62° 258° (WSW) 18:37:16 137.62
NOAA 18 05 May 18:34:08 18:39:35 61° 258° (WSW) 18:45:01 137.9125
Cubesat XI-IV 05 May 18:40:08 18:45:27 73° 257° (WSW) 18:50:47 437.490
AIST 2 05 May 18:40:35 18:43:08 16° 109° (ESE) 18:45:41 435.215
CUBESAT XI-V 05 May 18:53:52 18:58:09 35° 287° (WNW) 19:02:24 437.345
M-CUBED/EXP-1 PRIME 05 May 18:54:34 18:59:14 67° 72° (ENE) 19:03:53 437.505
RS-15 05 May 18:57:40 19:01:36 12° 98° (E) 19:05:35 29.354- 29.394
DOVE 4 05 May 18:59:07 19:03:47 38° 73° (ENE) 19:08:37 437.250
AUBIESAT-1 05 May 19:10:26 19:15:05 83° 75° (ENE) 19:19:42 437.475
Cosmos 2504 05 May 19:18:27 19:24:23 28° 87° (E) 19:30:13 435.465 / 435.565
GOMX 1 05 May 19:18:48 19:23:43 63° 260° (W) 19:28:59 467.674
CINEMA 3 05 May 19:20:30 19:23:59 19° 69° (ENE) 19:27:27 145.822/145.860
SRMSAT 05 May 19:29:37 19:34:39 28° 174° (S) 19:39:40 437.500
CUTE-I 05 May 19:36:25 19:40:11 20° 264° (W) 19:43:58 437.470
HO-68 05 May 19:42:45 19:49:31 47° 70° (ENE) 19:56:17 435.675
Cosmos 2491 05 May 19:42:47 19:49:01 22° 277° (W) 19:55:16 435.465 / 435.565
YUBILEINY 05 May 19:44:04 19:52:12 43° 281° (WNW) 20:00:22 435.215
AAUSAT CUBESAT 2 05 May 19:45:50 19:46:10 10° 68° (ENE) 19:46:30 437.432
CUBEBUG 2 05 May 19:48:54 19:49:36 10° 67° (ENE) 19:50:18 437.445
STRAND 1 05 May 19:50:49 19:55:53 63° 101° (ESE) 20:00:57 437.568
CANX-2 05 May 19:58:50 20:02:54 50° 76° (ENE) 20:06:59 2200.000
JUGNU 05 May 20:13:06 20:17:47 24° 190° (S) 20:22:29 437.505
AIST 2 05 May 20:17:39 20:21:19 31° 302° (WNW) 20:25:02 435.215
PRISM 05 May 20:27:53 20:31:23 26° 98° (E) 20:34:52 437.425
CUTE 1.7 + AOD 2 05 May 20:30:52 20:35:04 70° 260° (W) 20:39:15 437.475
Oscar 11 05 May 20:31:32 20:34:06 16° 70° (ENE) 20:36:40 145.826/435.025
DOVE 4 05 May 20:37:52 20:41:30 20° 266° (W) 20:45:14 437.250
FUNcube-1 05 May 20:47:02 20:50:23 21° 71° (ENE) 20:53:41 145.935
COMPASS 1 05 May 20:49:29 20:53:37 85° 262° (W) 20:57:45 437.405
SEEDS 05 May 20:52:18 20:56:22 52° 260° (W) 21:00:26 437.485
CINEMA 3 05 May 20:56:08 21:00:45 38° 262° (W) 21:05:25 145.822/145.860
RS-15 05 May 21:00:52 21:11:57 79° 114° (ESE) 21:23:41 29.354- 29.394
UWE-3 05 May 21:06:35 21:11:09 60° 76° (ENE) 21:15:40 435.000/436.395/437.385
Cosmos 2504 05 May 21:10:45 21:17:25 38° 281° (W) 21:24:01 435.465 / 435.565
AAUSAT CUBESAT 2 05 May 21:17:15 21:21:11 46° 261° (W) 21:25:09 437.432
SRMSAT 05 May 21:18:15 21:23:22 29° 184° (S) 21:28:30 437.500
CUBEBUG 2 05 May 21:20:58 21:25:40 62° 260° (W) 21:30:18 437.445
ZACube-1 05 May 21:29:47 21:34:19 74° 76° (ENE) 21:38:46 437.345
HO-68 05 May 21:31:36 21:37:18 26° 263° (W) 21:43:02 435.675
STRAND 1 05 May 21:32:38 21:34:28 12° 295° (WNW) 21:36:19 437.568
AO-85 05 May 21:39:39 21:44:13 86° 247° (WSW) 21:48:22 145.980
DELFI C3 05 May 22:03:24 22:07:20 78° 259° (WSW) 22:11:17 145.870
JUGNU 05 May 22:03:33 22:06:14 13° 198° (SSW) 22:08:57 437.505
PRISM 05 May 22:03:34 22:06:28 19° 290° (WNW) 22:09:22 437.425
HUMSAT D 05 May 22:04:40 22:08:37 40° 75° (ENE) 22:12:33 437.325/437.525
Oscar 11 05 May 22:06:03 22:09:54 32° 262° (W) 22:13:47 145.826/435.025
TIGRISAT 05 May 22:12:03 22:14:11 14° 94° (E) 22:16:18 435.000
FUNcube-1 05 May 22:22:36 22:26:25 27° 263° (W) 22:30:11 145.935
AISAT 05 May 22:34:55 22:36:15 11° 67° (ENE) 22:37:36 437.250
ANTELSAT 05 May 22:36:22 22:40:08 30° 98° (E) 22:43:51 437.575/2403.000
50 SAT 05 May 22:39:18 22:39:59 10° 69° (ENE) 22:40:40 437.505
CUBEBUG 1 05 May 23:00:01 23:03:18 21° 71° (ENE) 23:06:36 437.445
ESTCUBE 1 05 May 23:04:19 23:08:23 35° 73° (ENE) 23:12:27 437.505/2401.250
SRMSAT 05 May 23:07:45 23:12:03 20° 193° (SSW) 23:16:21 437.500
RS-15 05 May 23:16:27 23:25:37 27° 316° (NW) 23:35:14 29.354- 29.394
DX 1 05 May 23:20:46 23:24:41 34° 73° (ENE) 23:28:38 434.975-435.025
UKube-1 05 May 23:21:12 23:24:50 27° 72° (ENE) 23:28:30 .
DUCHIFAT 1 05 May 23:23:20 23:25:51 15° 95° (E) 23:28:20 145.980
QB50P2 05 May 23:27:53 23:31:08 21° 96° (E) 23:34:21 145.880/145.840
POLYITAN 1 05 May 23:30:04 23:33:20 22° 96° (E) 23:36:35 437.675
UNISAT 6 05 May 23:30:30 23:34:40 52° 285° (WNW) 23:38:47 437.425
POPSAT HIP 1 05 May 23:31:43 23:35:01 22° 97° (E) 23:38:17 437.405
GONETS M04 05 May 23:32:56 23:40:44 36° 87° (E) 23:48:31
QB50P1 05 May 23:34:28 23:37:55 24° 97° (E) 23:41:20 145.935-145.965
VELOX 1 05 May 23:35:17 23:39:37 59° 75° (ENE) 23:43:59 145.980
HUMSAT D 05 May 23:42:54 23:44:20 11° 266° (W) 23:45:46 437.325/437.525
SPROUT 05 May 23:44:49 23:48:19 25° 72° (ENE) 23:51:49 437.525
TIGRISAT 05 May 23:47:04 23:50:56 34° 287° (WNW) 23:54:47 435.000
PCSat 05 May 23:47:30 23:51:39 22° 57° (ENE) 23:55:46 145.827
BUGSAT 1 05 May 23:51:04 23:53:26 15° 95° (E) 23:55:46 437.445
NANOSAT C BR1 06 May 00:06:43 00:10:53 62° 100° (E) 00:15:02 145.865
AISAT 06 May 00:07:55 00:12:13 50° 260° (W) 00:16:34 437.250
AIST 1 06 May 00:08:06 00:12:23 85° 98° (E) 00:16:45
TISAT 1 06 May 00:08:07 00:09:43 12° 68° (ENE) 00:11:19 437.305
50 SAT 06 May 00:10:05 00:13:24 33° 261° (W) 00:16:43 437.505
ANTELSAT 06 May 00:13:54 00:16:34 16° 290° (WNW) 00:19:13 437.575/2403.000
O/OREOS (USA 219) 06 May 00:32:31 00:37:01 74° 71° (ENE) 00:41:28 437.305
CUBEBUG 1 06 May 00:35:48 00:39:24 25° 263° (W) 00:43:02 437.445
ESTCUBE 1 06 May 00:42:40 00:45:14 15° 265° (W) 00:47:49 437.505/2401.250
UKube-1 06 May 00:57:48 01:00:49 19° 264° (W) 01:03:52 .
DUCHIFAT 1 06 May 00:57:52 01:01:33 30° 287° (WNW) 01:05:11 145.980
DX 1 06 May 00:58:23 01:00:54 15° 265° (W) 01:03:27 434.975-435.025
QB50P2 06 May 01:03:31 01:06:48 22° 289° (WNW) 01:10:03 145.880/145.840
